Time,TemperatureF,DewpointF,PressureIn,WindDirection,WindDirectionDegrees,WindSpeedMPH,WindSpeedGustMPH,Humidity,HourlyPrecipIn,Conditions,Clouds,dailyrainin,SoftwareType,DateUTC
2013-02-19 00:02:00,46.0,44.0,29.68,South,190,12.0,15.0,93,0.00,,,0.00,,2013-02-19 05:02:00,
2013-02-19 00:12:00,46.0,44.0,29.68,South,190,12.0,15.0,93,0.00,,,0.00,,2013-02-19 05:12:00,
2013-02-19 00:22:00,45.0,43.0,29.68,SSW,193,13.0,23.0,93,0.00,,,0.00,,2013-02-19 05:22:00,
2013-02-19 00:32:00,46.0,44.0,29.66,SW,214,14.0,20.0,91,0.00,,,0.00,,2013-02-19 05:32:00,
2013-02-19 00:43:00,46.0,44.0,29.66,SW,214,14.0,20.0,91,0.00,,,0.00,,2013-02-19 05:43:00,
2013-02-19 00:52:00,46.0,43.0,29.66,South,183,12.0,24.0,89,0.00,,,0.00,,2013-02-19 05:52:00,
2013-02-19 01:02:00,46.0,43.0,29.66,SW,221,16.0,28.0,90,0.00,,,0.00,,2013-02-19 06:02:00,
2013-02-19 01:12:00,46.0,43.0,29.66,SW,221,16.0,28.0,90,0.00,,,0.00,,2013-02-19 06:12:00,
2013-02-19 01:22:00,46.0,44.0,29.65,SW,219,12.0,23.0,91,0.00,,,0.00,,2013-02-19 06:22:00,
2013-02-19 01:32:00,46.0,44.0,29.66,SSW,197,13.0,21.0,92,0.00,,,0.00,,2013-02-19 06:32:00,
2013-02-19 01:42:00,46.0,44.0,29.66,SSW,197,13.0,21.0,92,0.00,,,0.00,,2013-02-19 06:42:00,
2013-02-19 01:52:00,45.0,43.0,29.65,SSW,212,9.0,17.0,94,0.00,,,0.00,,2013-02-19 06:52:00,
2013-02-19 02:01:00,45.0,44.0,29.66,SSW,213,12.0,18.0,95,0.00,,,0.00,,2013-02-19 07:01:00,
2013-02-19 02:11:00,45.0,44.0,29.66,SSW,213,12.0,18.0,95,0.00,,,0.00,,2013-02-19 07:11:00,
2013-02-19 02:22:00,45.0,44.0,29.66,SW,224,12.0,17.0,95,0.00,,,0.00,,2013-02-19 07:22:00,
2013-02-19 02:32:00,44.0,43.0,29.69,West,273,6.0,16.0,96,0.00,,,0.00,,2013-02-19 07:32:00,
2013-02-19 02:42:00,44.0,43.0,29.69,West,273,6.0,16.0,96,0.00,,,0.00,,2013-02-19 07:42:00,
2013-02-19 02:52:00,39.0,38.0,29.71,NW,304,13.0,20.0,96,0.00,,,0.00,,2013-02-19 07:52:00,
2013-02-19 03:02:00,38.0,37.0,29.72,WNW,297,8.0,10.0,96,0.00,,,0.00,,2013-02-19 08:02:00,
2013-02-19 03:11:00,38.0,37.0,29.72,WNW,297,8.0,10.0,96,0.00,,,0.00,,2013-02-19 08:11:00,
2013-02-19 03:21:00,37.0,36.0,29.73,WNW,294,8.0,15.0,96,0.00,,,0.00,,2013-02-19 08:21:00,
2013-02-19 03:32:00,36.0,35.0,29.74,WSW,256,7.0,13.0,97,0.00,,,0.00,,2013-02-19 08:32:00,
2013-02-19 03:42:00,36.0,35.0,29.74,WSW,256,7.0,13.0,97,0.00,,,0.00,,2013-02-19 08:42:00,
2013-02-19 03:52:00,35.0,34.0,29.74,WNW,288,8.0,13.0,97,0.00,,,0.00,,2013-02-19 08:52:00,
2013-02-19 04:02:00,35.0,34.0,29.75,WNW,292,8.0,14.0,97,0.00,,,0.00,,2013-02-19 09:02:00,
2013-02-19 04:11:00,35.0,34.0,29.75,WNW,292,8.0,14.0,97,0.00,,,0.00,,2013-02-19 09:11:00,
2013-02-19 04:22:00,34.0,33.0,29.75,WNW,297,7.0,10.0,97,0.00,,,0.00,,2013-02-19 09:22:00,
2013-02-19 04:32:00,34.0,33.0,29.75,WNW,299,7.0,9.0,97,0.00,,,0.00,,2013-02-19 09:32:00,
2013-02-19 04:42:00,34.0,33.0,29.75,WNW,299,7.0,9.0,97,0.00,,,0.00,,2013-02-19 09:42:00,
2013-02-19 04:53:00,33.0,31.0,29.78,WNW,287,8.0,15.0,94,0.00,,,0.00,,2013-02-19 09:53:00,
2013-02-19 05:02:00,32.0,30.0,29.79,WNW,297,9.0,14.0,93,0.00,,,0.00,,2013-02-19 10:02:00,
2013-02-19 05:11:00,32.0,30.0,29.79,WNW,297,9.0,14.0,93,0.00,,,0.00,,2013-02-19 10:11:00,
2013-02-19 05:22:00,32.0,30.0,29.80,WNW,290,9.0,16.0,93,0.00,,,0.00,,2013-02-19 10:22:00,
2013-02-19 05:32:00,32.0,30.0,29.80,WNW,290,6.0,7.0,93,0.00,,,0.00,,2013-02-19 10:32:00,
2013-02-19 05:42:00,32.0,30.0,29.80,WNW,290,6.0,7.0,93,0.00,,,0.00,,2013-02-19 10:42:00,
2013-02-19 05:52:00,32.0,30.0,29.81,WNW,297,6.0,7.0,93,0.00,,,0.00,,2013-02-19 10:52:00,
2013-02-19 06:01:00,31.0,27.0,29.82,WNW,297,12.0,16.0,85,0.00,,,0.00,,2013-02-19 11:01:00,
2013-02-19 06:11:00,31.0,27.0,29.83,WNW,299,7.0,12.0,86,0.00,,,0.00,,2013-02-19 11:11:00,
2013-02-19 06:22:00,31.0,27.0,29.83,WNW,299,7.0,12.0,86,0.00,,,0.00,,2013-02-19 11:22:00,
2013-02-19 06:32:00,31.0,27.0,29.83,WNW,285,8.0,15.0,86,0.00,,,0.00,,2013-02-19 11:32:00,
2013-02-19 06:42:00,31.0,27.0,29.83,WNW,285,8.0,15.0,86,0.00,,,0.00,,2013-02-19 11:42:00,
2013-02-19 06:52:00,31.0,28.0,29.83,WNW,282,7.0,9.0,88,0.00,,,0.00,,2013-02-19 11:52:00,
2013-02-19 07:02:00,31.0,27.0,29.84,WNW,286,8.0,12.0,84,0.00,,,0.00,,2013-02-19 12:02:00,
2013-02-19 07:12:00,31.0,27.0,29.84,WNW,286,8.0,12.0,84,0.00,,,0.00,,2013-02-19 12:12:00,
2013-02-19 07:22:00,31.0,26.0,29.84,WNW,291,9.0,17.0,81,0.00,,,0.00,,2013-02-19 12:22:00,
2013-02-19 07:32:00,31.0,26.0,29.85,WNW,283,7.0,13.0,80,0.00,,,0.00,,2013-02-19 12:32:00,
2013-02-19 07:42:00,31.0,26.0,29.85,WNW,283,7.0,13.0,80,0.00,,,0.00,,2013-02-19 12:42:00,
2013-02-19 07:52:00,30.0,25.0,29.85,West,277,7.0,10.0,80,0.00,,,0.00,,2013-02-19 12:52:00,
2013-02-19 08:02:00,30.0,25.0,29.85,WNW,285,9.0,12.0,81,0.00,,,0.00,,2013-02-19 13:02:00,
2013-02-19 08:11:00,30.0,25.0,29.85,WNW,285,9.0,12.0,81,0.00,,,0.00,,2013-02-19 13:11:00,
2013-02-19 08:22:00,30.0,23.0,29.86,West,269,9.0,17.0,76,0.00,,,0.00,,2013-02-19 13:22:00,
2013-02-19 08:32:00,30.0,23.0,29.87,WNW,297,7.0,9.0,76,0.00,,,0.00,,2013-02-19 13:32:00,
2013-02-19 08:42:00,30.0,23.0,29.87,WNW,297,7.0,9.0,76,0.00,,,0.00,,2013-02-19 13:42:00,
2013-02-19 08:52:00,30.0,23.0,29.87,WNW,298,7.0,13.0,74,0.00,,,0.00,,2013-02-19 13:52:00,
2013-02-19 09:01:00,30.0,23.0,29.87,West,279,6.0,9.0,76,0.00,,,0.00,,2013-02-19 14:01:00,
2013-02-19 09:12:00,30.0,23.0,29.87,West,279,6.0,9.0,76,0.00,,,0.00,,2013-02-19 14:12:00,
2013-02-19 09:22:00,30.0,-99.9,-100.00,WNW,284,6.0,14.0,-999,0.00,,,0.00,,2013-02-19 14:22:00,
2013-02-19 09:33:00,29.0,22.0,29.89,West,280,12.0,21.0,76,0.00,,,0.00,,2013-02-19 14:33:00,
2013-02-19 09:42:00,29.0,22.0,29.89,West,280,12.0,21.0,76,0.00,,,0.00,,2013-02-19 14:42:00,
2013-02-19 09:52:00,29.0,22.0,29.89,West,278,12.0,20.0,75,0.00,,,0.00,,2013-02-19 14:52:00,
2013-02-19 10:02:00,28.0,21.0,29.90,WNW,299,8.0,14.0,75,0.00,,,0.00,,2013-02-19 15:02:00,
2013-02-19 10:11:00,28.0,21.0,29.90,WNW,299,8.0,14.0,75,0.00,,,0.00,,2013-02-19 15:11:00,
2013-02-19 10:21:00,28.0,21.0,29.91,WNW,288,10.0,13.0,74,0.00,,,0.00,,2013-02-19 15:21:00,
2013-02-19 10:32:00,28.0,21.0,29.91,WNW,291,10.0,16.0,74,0.00,,,0.00,,2013-02-19 15:32:00,
2013-02-19 10:42:00,28.0,21.0,29.91,WNW,291,10.0,16.0,74,0.00,,,0.00,,2013-02-19 15:42:00,
2013-02-19 10:52:00,28.0,21.0,29.91,West,275,7.0,14.0,75,0.00,,,0.00,,2013-02-19 15:52:00,
2013-02-19 11:02:00,29.0,22.0,29.91,West,262,7.0,17.0,76,0.00,,,0.00,,2013-02-19 16:02:00,
2013-02-19 11:11:00,29.0,22.0,29.91,West,262,7.0,17.0,76,0.00,,,0.00,,2013-02-19 16:11:00,
2013-02-19 11:22:00,28.0,21.0,29.91,West,272,7.0,15.0,76,0.00,,,0.00,,2013-02-19 16:22:00,
2013-02-19 11:32:00,29.0,21.0,29.92,WNW,284,10.0,13.0,73,0.00,,,0.00,,2013-02-19 16:32:00,
2013-02-19 11:42:00,29.0,21.0,29.92,WNW,284,10.0,13.0,73,0.00,,,0.00,,2013-02-19 16:42:00,
2013-02-19 11:52:00,29.0,21.0,29.93,WNW,295,13.0,17.0,72,0.00,,,0.00,,2013-02-19 16:52:00,
2013-02-19 12:01:00,29.0,21.0,29.93,WNW,289,9.0,13.0,73,0.00,,,0.00,,2013-02-19 17:01:00,
2013-02-19 12:11:00,29.0,21.0,29.93,WNW,289,9.0,13.0,73,0.00,,,0.00,,2013-02-19 17:11:00,
2013-02-19 12:21:00,29.0,21.0,29.94,West,267,9.0,17.0,72,0.00,,,0.00,,2013-02-19 17:21:00,
2013-02-19 12:32:00,29.0,21.0,29.95,West,266,10.0,25.0,72,0.00,,,0.00,,2013-02-19 17:32:00,
2013-02-19 12:42:00,29.0,21.0,29.95,WNW,284,6.0,10.0,73,0.00,,,0.00,,2013-02-19 17:42:00,
2013-02-19 12:52:00,29.0,21.0,29.95,WNW,284,6.0,10.0,73,0.00,,,0.00,,2013-02-19 17:52:00,
2013-02-19 13:01:00,29.0,21.0,29.95,WNW,291,7.0,16.0,73,0.00,,,0.00,,2013-02-19 18:01:00,
2013-02-19 13:11:00,29.0,21.0,29.95,WNW,291,7.0,16.0,73,0.00,,,0.00,,2013-02-19 18:11:00,
2013-02-19 13:21:00,29.0,19.0,29.96,West,274,13.0,17.0,67,0.00,,,0.00,,2013-02-19 18:21:00,
2013-02-19 13:32:00,29.0,19.0,29.96,West,276,13.0,21.0,67,0.00,,,0.00,,2013-02-19 18:32:00,
2013-02-19 13:42:00,29.0,19.0,29.98,West,272,9.0,12.0,66,0.00,,,0.00,,2013-02-19 18:42:00,
2013-02-19 13:52:00,29.0,19.0,29.98,West,272,9.0,12.0,66,0.00,,,0.00,,2013-02-19 18:52:00,
2013-02-19 14:01:00,28.0,18.0,29.98,WNW,285,14.0,20.0,65,0.00,,,0.00,,2013-02-19 19:01:00,
2013-02-19 14:11:00,28.0,18.0,29.98,WNW,285,14.0,20.0,65,0.00,,,0.00,,2013-02-19 19:11:00,
2013-02-19 14:21:00,28.0,19.0,29.98,WNW,288,9.0,21.0,68,0.00,,,0.00,,2013-02-19 19:21:00,
2013-02-19 14:32:00,28.0,18.0,29.98,West,281,7.0,12.0,67,0.00,,,0.00,,2013-02-19 19:32:00,
2013-02-19 14:42:00,28.0,18.0,29.98,West,281,7.0,12.0,67,0.00,,,0.00,,2013-02-19 19:42:00,
2013-02-19 14:52:00,28.0,19.0,29.99,WNW,284,13.0,23.0,68,0.00,,,0.00,,2013-02-19 19:52:00,
2013-02-19 15:01:00,28.0,20.0,29.99,WNW,288,8.0,14.0,70,0.00,,,0.00,,2013-02-19 20:01:00,
2013-02-19 15:12:00,28.0,20.0,29.99,WNW,288,8.0,14.0,70,0.00,,,0.00,,2013-02-19 20:12:00,
2013-02-19 15:22:00,28.0,19.0,30.00,WNW,284,14.0,22.0,69,0.00,,,0.00,,2013-02-19 20:22:00,
2013-02-19 15:32:00,28.0,18.0,30.00,West,277,10.0,16.0,67,0.00,,,0.00,,2013-02-19 20:32:00,
2013-02-19 15:42:00,28.0,18.0,30.00,West,277,10.0,16.0,67,0.00,,,0.00,,2013-02-19 20:42:00,
2013-02-19 15:52:00,28.0,18.0,30.01,West,278,13.0,21.0,67,0.00,,,0.00,,2013-02-19 20:52:00,
2013-02-19 16:02:00,28.0,18.0,30.01,WNW,284,7.0,14.0,66,0.00,,,0.00,,2013-02-19 21:02:00,
2013-02-19 16:11:00,28.0,18.0,30.01,WNW,284,7.0,14.0,66,0.00,,,0.00,,2013-02-19 21:11:00,
2013-02-19 16:21:00,28.0,18.0,30.02,WNW,284,9.0,16.0,66,0.00,,,0.00,,2013-02-19 21:21:00,
2013-02-19 16:52:00,28.0,17.0,30.03,WNW,286,8.0,10.0,64,0.00,,,0.00,,2013-02-19 21:52:00,
2013-02-19 17:02:00,28.0,17.0,30.04,West,281,9.0,23.0,62,0.00,,,0.00,,2013-02-19 22:02:00,
2013-02-19 17:11:00,28.0,17.0,30.04,West,281,9.0,23.0,62,0.00,,,0.00,,2013-02-19 22:11:00,
2013-02-19 17:21:00,27.0,16.0,30.05,WNW,294,9.0,16.0,64,0.00,,,0.00,,2013-02-19 22:21:00,
2013-02-19 17:32:00,27.0,18.0,30.05,WNW,296,10.0,18.0,67,0.00,,,0.00,,2013-02-19 22:32:00,
2013-02-19 17:42:00,27.0,18.0,30.05,WNW,296,10.0,18.0,67,0.00,,,0.00,,2013-02-19 22:42:00,
2013-02-19 17:52:00,27.0,19.0,30.06,WNW,289,12.0,18.0,70,0.00,,,0.00,,2013-02-19 22:52:00,
2013-02-19 18:01:00,27.0,18.0,30.08,West,274,6.0,9.0,68,0.00,,,0.00,,2013-02-19 23:01:00,
2013-02-19 18:11:00,27.0,18.0,30.08,West,274,6.0,9.0,68,0.00,,,0.00,,2013-02-19 23:11:00,
2013-02-19 18:21:00,26.0,16.0,30.09,WNW,289,6.0,14.0,66,0.00,,,0.00,,2013-02-19 23:21:00,
2013-02-19 18:32:00,26.0,16.0,30.09,WNW,302,6.0,9.0,66,0.00,,,0.00,,2013-02-19 23:32:00,
2013-02-19 18:42:00,26.0,16.0,30.09,WNW,302,6.0,9.0,66,0.00,,,0.00,,2013-02-19 23:42:00,
2013-02-19 18:52:00,26.0,17.0,30.10,WNW,290,8.0,18.0,68,0.00,,,0.00,,2013-02-19 23:52:00,
2013-02-19 19:01:00,26.0,17.0,30.10,WNW,287,7.0,10.0,68,0.00,,,0.00,,2013-02-20 00:01:00,
2013-02-19 19:11:00,26.0,17.0,30.10,WNW,287,7.0,10.0,68,0.00,,,0.00,,2013-02-20 00:11:00,
2013-02-19 19:21:00,26.0,19.0,30.11,WNW,295,7.0,12.0,73,0.00,,,0.00,,2013-02-20 00:21:00,
2013-02-19 19:32:00,25.0,17.0,30.12,WNW,293,8.0,16.0,72,0.00,,,0.00,,2013-02-20 00:32:00,
2013-02-19 19:42:00,25.0,17.0,30.12,WNW,293,8.0,16.0,72,0.00,,,0.00,,2013-02-20 00:42:00,
2013-02-19 19:52:00,25.0,17.0,30.12,WNW,284,9.0,12.0,71,0.00,,,0.00,,2013-02-20 00:52:00,
2013-02-19 20:02:00,25.0,17.0,30.13,WNW,289,7.0,9.0,72,0.00,,,0.00,,2013-02-20 01:02:00,
2013-02-19 20:11:00,25.0,17.0,30.13,WNW,289,7.0,9.0,72,0.00,,,0.00,,2013-02-20 01:11:00,
2013-02-19 20:21:00,25.0,17.0,30.13,WNW,282,6.0,13.0,71,0.00,,,0.00,,2013-02-20 01:21:00,
2013-02-19 20:32:00,25.0,18.0,30.13,WNW,293,5.0,8.0,74,0.00,,,0.00,,2013-02-20 01:32:00,
2013-02-19 20:42:00,25.0,18.0,30.13,WNW,293,5.0,8.0,74,0.00,,,0.00,,2013-02-20 01:42:00,
2013-02-19 20:52:00,25.0,-99.9,-100.00,NW,313,6.0,12.0,-999,0.00,,,0.00,,2013-02-20 01:52:00,
2013-02-19 21:02:00,25.0,16.0,30.13,WNW,291,6.0,8.0,69,0.00,,,0.00,,2013-02-20 02:02:00,
2013-02-19 21:11:00,25.0,16.0,30.13,WNW,291,6.0,8.0,69,0.00,,,0.00,,2013-02-20 02:11:00,
2013-02-19 21:21:00,25.0,18.0,30.14,West,278,7.0,10.0,73,0.00,,,0.00,,2013-02-20 02:21:00,
2013-02-19 21:32:00,25.0,18.0,30.14,WNW,287,6.0,15.0,74,0.00,,,0.00,,2013-02-20 02:32:00,
2013-02-19 21:42:00,25.0,18.0,30.14,WNW,287,6.0,15.0,74,0.00,,,0.00,,2013-02-20 02:42:00,
2013-02-19 21:52:00,24.0,16.0,30.14,WNW,296,7.0,9.0,72,0.00,,,0.00,,2013-02-20 02:52:00,
2013-02-19 22:02:00,24.0,17.0,30.15,WNW,303,5.0,12.0,73,0.00,,,0.00,,2013-02-20 03:02:00,
2013-02-19 22:12:00,24.0,17.0,30.15,WNW,303,5.0,12.0,73,0.00,,,0.00,,2013-02-20 03:12:00,
2013-02-19 22:22:00,24.0,15.0,30.15,WNW,296,7.0,13.0,69,0.00,,,0.00,,2013-02-20 03:22:00,
2013-02-19 22:32:00,24.0,15.0,30.15,WNW,302,9.0,21.0,68,0.00,,,0.00,,2013-02-20 03:32:00,
2013-02-19 22:42:00,24.0,15.0,30.15,WNW,302,9.0,21.0,68,0.00,,,0.00,,2013-02-20 03:42:00,
2013-02-19 22:52:00,24.0,15.0,30.15,NW,309,6.0,13.0,69,0.00,,,0.00,,2013-02-20 03:52:00,
2013-02-19 23:01:00,24.0,15.0,30.15,NW,312,2.0,10.0,69,0.00,,,0.00,,2013-02-20 04:01:00,
2013-02-19 23:11:00,24.0,15.0,30.15,NW,312,2.0,10.0,69,0.00,,,0.00,,2013-02-20 04:11:00,
2013-02-19 23:21:00,24.0,15.0,30.16,NW,304,6.0,12.0,68,0.00,,,0.00,,2013-02-20 04:21:00,
2013-02-19 23:32:00,24.0,16.0,30.16,WNW,289,7.0,13.0,70,0.00,,,0.00,,2013-02-20 04:32:00,
2013-02-19 23:42:00,24.0,16.0,30.16,WNW,289,7.0,13.0,70,0.00,,,0.00,,2013-02-20 04:42:00,
2013-02-19 23:52:00,24.0,16.0,30.16,WNW,301,2.0,6.0,72,0.00,,,0.00,,2013-02-20 04:52:00,